Other Public Products
Issued by NWS Grand Forks, ND

Home | Current Version | Previous Version | Text Only | Print | Product List | Glossary Off
Versions: 1 2 3 4 5 6 7 8 9 10 11 12 13 14 15 16 17 18 19 20 21 22 23 24 25 26 27 28 29 30 31 32 33 34 35 36 37 38 39 40 41 42 43 44 45 46 47 48 49 50

000
FPUS83 KFGF 030431
OPUFGF
PRAIRIE TO PINES WEATHER ROUNDUP
NATIONAL WEATHER SERVICE EASTERN NORTH DAKOTA/GRAND FORKS ND
1100 PM CDT SUN AUG 02 2015

 **SATELLITE DATA USED TO AUGMENT SKY COVER AT AUTOMATED STATIONS**
 *****  WEATHER ACROSS EASTERN NORTH DAKOTA  *****

CITY           SKY/WX    TMP DP  RH WIND       PRES   REMARKS
GRAND FORKS    CLEAR     58  50  75 W8        29.85R
GRAND FORKS AF CLEAR     59  50  72 W8        29.86R
GRAND CITY NWS NOT AVBL
BUXTON         NOT AVBL
DEVILS LAKE    CLEAR     57  46  67 NW10      29.91S
FARGO          CLEAR     61  52  72 W9        29.86R
WAHPETON ARPT  CLEAR     54  48  82 W6        29.88S
$$

 *****  WEATHER ACROSS CENTRAL AND WESTERN NORTH DAKOTA  *****

CITY           SKY/WX    TMP DP  RH WIND       PRES   REMARKS
JAMESTOWN      CLEAR     61  52  72 NW8       29.92R
BISMARCK       CLEAR     68  52  56 N3        29.97R
MINOT          CLEAR     60  49  66 NW8       29.95R
MINOT AFB      CLEAR     62  52  71 NW7       29.95R
GARRISON         N/A     59  53  80 NW8       29.97R
WILLISTON      CLEAR     67  48  50 N7        30.01R
DICKINSON      CLEAR     57  49  74 SE5       30.01R
HETTINGER      CLEAR     56  48  74 NE3       30.03R
$$

 *****  OTHER OBSERVATIONS NORTHEAST NORTH DAKOTA  *****

CITY           SKY/WX    TMP DP  RH WIND       PRES   REMARKS
WALHALLA       FAIR      57  50  77 MISG      29.88S
LANGDON        FAIR      54  48  82 W7        29.90S
CAVALIER       FAIR      57  50  77 NW6       29.87R
GRAFTON        FAIR      61  52  72 NW7       29.87R
CANDO          FAIR      55  50  82 NW8       29.93R
FORT TOTTEN      N/A     67  51  55 N3        29.95S
ROLLA          FAIR      54  50  87 NW9       29.95R
RUGBY          NOT AVBL
 ***** THE ABOVE OBSERVATIONS ARE NON NWS ARE NOT QUALITY
        CONTROLLED AND MAY MIS-REPORT RAIN FOR SNOW...
$$

 *****  OTHER OBSERVATIONS SOUTHEAST NORTH DAKOTA *****

CITY           SKY/WX    TMP DP  RH WIND       PRES   REMARKS
COOPERSTOWN    NOT AVBL
VALLEY CITY    FAIR      59  55  88 NW9       29.91S
OAKES            N/A     59  57  94 W5        29.92S
GWINNER        FAIR      61  54  77 W8        29.91S
SHEYENNE NWR     N/A     59  51  75 W3        29.95S
BUFFALO        NOT AVBL
WYNDMERE         N/A     57  52  82 W3          N/A
 ***** THE ABOVE OBSERVATIONS ARE NON NWS ARE NOT QUALITY
       CONTROLLED AND MAY MIS-REPORT RAIN FOR SNOW...
$$

  *****  WEATHER ACROSS NORTHERN MINNESOTA  *****

CITY           SKY/WX    TMP DP  RH WIND       PRES   REMARKS
FLAG ISLAND    CLOUDY    64  52  63 NW17G23   29.77S
WARROAD        MOCLDY    59  46  63 W8        29.81S
ROSEAU         CLEAR     59  48  67 W9        29.82R
HALLOCK        CLEAR     57  48  72 NW6       29.85R
THF RVR FALLS  CLEAR     55  48  76 CALM      29.85R
HALSTAD        NOT AVBL
FOSSTON        CLEAR     54  46  76 CALM      29.86R
BAUDETTE       MOCLDY    61  46  57 W9        29.78S
WASKISH        CLEAR     63  48  59 W10       29.80S
CROOKSTON      CLEAR     57  52  82 N5        29.86R
$$
  *****  WEATHER ACROSS CENTRAL AND WEST MINNESOTA  *****

CITY           SKY/WX    TMP DP  RH WIND       PRES   REMARKS
BEMIDJI        CLEAR     54  44  71 W5        29.83S
PARK RAPIDS    CLEAR     58  49  72 NW5       29.84R
WADENA         CLEAR     57  48  72 W6        29.85S
DETROIT LAKES  CLEAR     63  50  63 NW10      29.87S
MOORHEAD       CLEAR     57  52  82 W8        29.88R
FERGUS FALLS   CLEAR     59  52  77 W3        29.88R
ELBOW LAKE     FAIR      61  51  70 CALM      29.88S
MORRIS MN      CLEAR     57  52  82 W5        29.89S
STAPLES        CLEAR     55  46  71 W5        29.85S
WHEATON        CLEAR     55  52  88 W3        29.91S
$$
  *****  WEATHER ELSEWHERE ACROSS MINNESOTA  *****

CITY           SKY/WX    TMP DP  RH WIND       PRES   REMARKS
DULUTH         MOCLDY    64  48  56 NW10      29.76S
INTRNTL FALLS  CLOUDY    60  48  64 W5        29.75F
ELY            CLOUDY    57  48  72 CALM      29.75S
CLOQUET        CLEAR     61  45  55 W8        29.78S
BRAINERD       CLEAR     64  48  56 W6        29.83S
HIBBING        CLOUDY    64  46  52 W12       29.77S
ALEXANDRIA     CLEAR     62  51  67 W5        29.89R
SAINT CLOUD    CLEAR     63  50  62 NW7       29.85R
MINNEAPOLIS    CLEAR     70  51  51 NW8       29.83R
$$

  *****  WEATHER ACROSS SOUTH DAKOTA  *****

CITY           SKY/WX    TMP DP  RH WIND       PRES   REMARKS
SIOUX FALLS    CLEAR     66  58  75 N7        29.92R
BROOKINGS      CLEAR     63  55  77 CALM      29.95S
WATERTOWN      CLEAR     64  56  75 CALM      29.94R
HURON          CLEAR     66  60  81 CALM      29.92R
SISSETON         N/A     62  53  72 W6        29.90R
ABERDEEN       CLEAR     62  55  77 CALM      29.93R
MITCHELL       CLEAR     67  60  78 N3        29.93R
PIERRE         CLEAR     65  53  65 NE8       29.95R
MOBRIDGE       CLEAR     62  57  83 N6        29.95R
RAPID CITY     CLEAR     68  53  58 E3        30.03R
$$

  *****  SOME WEATHER IN NEARBY STATES *****

CITY           SKY/WX    TMP DP  RH WIND       PRES   REMARKS
GLASGOW MT     CLEAR     68  48  48 E10       30.01R
GREAT FALLS MT CLEAR     71  48  43 E8        29.96R
CHEYENNE WY    MOCLDY    71  49  45 CALM      30.14S
SCOTTSBLUFF NE MOCLDY    75  57  53 E8        30.00R
OMAHA NE       MOCLDY    79  73  82 N3        29.86R
DES MOINES IA  PTCLDY    74  63  68 W6        29.84R
DAVENPORT IA   CLEAR     77  65  66 W9        29.76R
CHICAGO IL     TSTM      68  67  96 VRB3      29.72R
EAU CLAIRE WI  CLEAR     67  51  56 NW8       29.78R
LA CROSSE WI   MOCLDY    75  61  61 NW9       29.76R
$$

  *****  SOME NATIONAL WEATHER *****

CITY           SKY/WX    TMP DP  RH WIND       PRES   REMARKS
LA GUARDIA NY  PTCLDY    80  62  54 S6        29.85F
RALEIGH NC     PTCLDY    74  61  63 CALM      29.95S
ATLANTA GA     MOCLDY    81  67  62 SE7       29.92S
NEW ORLEANS LA PTCLDY    83  75  77 SW10      29.88S HX  90
OKLAHOMA CITY  CLOUDY    76  67  73 SE6       29.91S
ALBUQUERQUE NM MOCLDY    73  55  53 CALM      30.13R
SALT LAKE CITY CLOUDY    77  50  38 S13       29.97R
LOS ANGELES CA PTCLDY    70  64  81 W9        29.84R
BOISE ID       MOCLDY    89  51  27 CALM      29.77S
SEATTLE WA     CLOUDY    83  49  30 CALM      29.89F
$$

*** WEATHER ACROSS MANITOBA...SASKATCHEWAN AND ONTARIO ***
                ***ONTARIO***

CITY           SKY/WX    TMP DP  RH WIND       PRES   REMARKS
GERALDTON      CLOUDY    55  52  88 NW9       29.59F
THUNDER BAY    CLOUDY    61  54  77 W7        29.66F
SIOUX LOOKOUT  CLOUDY    55  50  82 NW9       29.70S
TORONTO        LGT RAIN  66  63  88 SW7       29.66R
BIG TROUT LK   LGT RAIN  48  46  93 N6        29.58  FOG
PICKLE LAKE    NOT AVBL
DRYDEN         MOCLDY    57  50  77 NW7       29.72F
KENORA         CLOUDY    61  50  67 NW10G24   29.77R
$$
                *** MANITOBA***

CITY           SKY/WX    TMP DP  RH WIND       PRES   REMARKS
BRANDON        CLEAR     50  48  93 W7        29.91S
DAUPHIN        CLEAR     52  48  87 W6        29.89R
ISLAND LAKE    LGT RAIN  55  54  94 N9G23     29.71R
PILOT MOUND      N/A     57  48  72 W6          N/A
THE PAS        MOCLDY    63  48  59 N7        29.89R
THOMPSON       CLOUDY    54  48  82 NW7       29.80S
WINNIPEG       MOCLDY    59  52  77 NW6       29.85R
LYNN LAKE      CLEAR     54  48  82 E2        29.87S
CHURCHILL      LGT RAIN  45  43  93 NE13      29.77R
GILLAM         CLOUDY    48  46  93 N16       29.72R FOG
$$
                ***SASKATCHEWAN***

CITY           SKY/WX    TMP DP  RH WIND       PRES   REMARKS
ESTEVAN        PTCLDY    55  50  82 NW7       30.00R
KINDERSLEY     PTCLDY    63  54  72 E10       30.00R
LLOYDMINSTER   MOCLDY    63  50  63 S7        29.99S
PRINCE ALBERT  PTCLDY    59  54  82 CALM      29.96R
REGINA         PTCLDY    59  55  88 W3        30.00S


USA.gov is the U.S. government's official web portal to all federal, state and local government web resources and services.